Main page
METAR-TAF:

METAR-TAF

Airports :

Ula, Norway

Oil platform

latitude: 59-06-39N, longitude: 2-50-45E, elevation: 0 m

Current weather observation

The report was made 25 minutes ago, at 08:20 UTC
Wind 24 kt from the West/Northwest
Temperature 11°C
Humidity 87%
Pressure 1012 hPa
Visibility 10 km or more

METAR: ENLA 230820Z AUTO 29024KT 9999NDV NCD 11/09 Q1012 W///S3

Time: 10:45 (08:45 UTC)


TAF: missing

Weather observations and forecasts of more than 4000 airports (METAR and TAF reports).

The available stations are represented by yellow and red dots on the map.

Hover mouse over dot to see the name of the station.

Then click to see weather observations and forecasts.

To change the map : click on the green buttons with a black cross to zoom in, on the green button with a dash to zoom out, or on the green arrows for adjacent maps.


METAR-TAF: